STARLINK-34170 (63955 NORAD) Tracking and Keplerian Element Data

This shows tracking and keplerian element data for the satellite.

Feedback or suggestion? Click here.




ElementValue
Catalog63955
NameSTARLINK-34170
Epoch Orbit3514
Epoch Day354.05727515
Epoch Year2025
RAAN266.2844
Inclination42.9999
Eccentricity0.0001193
Argument of Perigee276.3691
Mean Anonmoly83.7025
Mean Motion15.27598803
Decay Rate0.00024288
L11 63955U 25099D 25354.05727515 .00024288 00000+0 88871-3 0 9992
L22 63955 42.9999 266.2844 0001193 276.3691 83.7025 15.27598803 35148



Live tracking and technical data element details for STARLINK-34170 (NORAD 63955). STARLINK-34170 can be tracked NOW for your location showing map with azimuth and elevation plus other details from your city location.







IsCatalogInMostPopularTable: catalog: 63955, numindb: 12
Update: records affected: 1



GetName: 63955 STARLINK-34170

Hit Count: updated at: Thu, 21 May 2026 10:49:14 GMT